Location: ?p Thanh B�nh
(16.5833°N, 107.5333°E)
Time: 09:46:00
(UTC+00:00)

GPS 2-17 Rocket1 - Pass Details

Date: 29 October 2020
Orbit: 571 x 659 km, 20.3° (Epoch: 23 November)

Event Time Altitude Azimuth Distance (km) Brightness Sun altitude
Exits shadow 21:47:43 23° 261° (W) 1,281 4.1 -14.7°
Maximum altitude 21:50:13 48° 197° (SSW) 786 3.5 -14.1°
Drops below altitude 10° 21:54:39 10° 123° (ESE) 1,963 6.8 -13.0°
Sets 21:57:05 0° 118° (ESE) 2,884 8.1 -12.5°
